Location: Castillon
(43.1358°N, 0.8654°E)
Time: 14:51:01
(UTC+00:00)

Daily predictions for brighter satellites

Satellite Brightness Start Highest point End
(mag) Time Altitude Azimuth Time Altitude Azimuth Time Altitude Azimuth
ATLAS 5 CENTAUR R/B 3.6 17:24:08 10° W 17:27:17 20° NW 17:30:43 10° NNE
Okean 1-7 Rocket 3.9 17:23:45 10° SSE 17:28:06 47° E 17:32:30 10° NNE
SMAP 3.2 17:24:58 10° S 17:29:37 81° WSW 17:34:18 10° NNW
CZ-4B R/B 3.3 17:24:31 10° SSE 17:30:04 87° ENE 17:35:45 10° NNW
Lacrosse 5 1.8 17:29:25 10° NW 17:34:28 71° NE 17:39:30 10° SE
Cosmos 923 Rocket 4.4 17:30:41 10° N 17:35:43 41° ENE 17:40:42 10° SE
SL-24 R/B 4.4 17:32:17 10° S 17:36:38 79° WSW 17:41:24 10° NNW
Cosmos 1939 Rocket 3.1 17:32:52 10° SSE 17:36:50 49° ENE 17:40:46 10° N
Cosmos 1898 Rocket 4.5 17:33:05 10° SSE 17:37:27 27° E 17:41:47 10° NE
COSMO-SKYMED 1 3.1 17:35:06 10° NNE 17:39:12 39° E 17:43:16 10° SSE
CZ-4C R/B 4.4 17:36:07 10° WNW 17:39:34 16° NNW 17:43:25 10° NNE
Cosmos 1680 Rocket 4.1 17:36:44 10° N 17:41:32 34° ENE 17:46:15 10° SE
CREW DRAGON DEMO-1 DEB 2.9 17:38:43 10° NW 17:41:33 49° NNE 17:44:22 10° ESE
Aureole 3 Rocket 4.3 17:42:46 10° NE 17:44:11 12° ENE 17:45:40 10° E
Feng Yun 1-1 Rocket 4.3 17:40:58 10° SSE 17:46:15 56° ENE 17:51:42 10° N
ISS -2.8 17:43:09 10° W 17:46:22 40° NNW 17:49:25 11° NE
NOSS 2-1 (E) 3.9 17:44:27 10° S 17:47:25 29° ESE 17:49:49 13° ENE
CZ-2D R/B 3.6 17:43:51 10° SE 17:47:29 41° ENE 17:51:06 10° N
Cosmos 1340 3.8 17:48:26 10° SE 17:51:29 24° E 17:54:32 10° NE
IRS-1C Rocket 4.4 17:46:44 10° SE 17:51:42 45° ENE 17:56:42 10° N
H-2A R/B 2.8 17:47:46 10° SE 17:52:02 29° ENE 17:56:24 10° N
Meteor 1-21 Rocket 4.3 17:47:23 10° S 17:52:44 55° E 17:58:09 10° NNE
ERS-2 2.9 17:51:15 10° NE 17:54:29 30° E 17:57:42 10° SSE
Cosmos 1455 2.2 17:51:42 10° N 17:55:29 59° E 17:59:17 10° SSE
Cosmos-2242 4.5 17:54:36 10° NNE 17:57:20 16° ENE 17:59:06 13° E
Cosmos 2263 Rocket 4.4 17:53:16 10° W 17:57:27 21° NW 18:01:39 10° N
CZ-4 R/B 2.1 17:53:54 10° SE 17:57:32 32° ENE 18:01:07 10° N
Cosmos 1602 Rocket 3.9 17:57:37 10° SSE 18:01:40 40° E 18:05:46 10° NNE
ARGOS 4.0 17:58:17 10° ESE 18:02:43 27° ENE 18:07:10 10° N
SKYMED 3 4.5 17:58:55 10° NNE 18:03:17 73° ESE 18:07:36 10° S
COSMOS 2455 3.9 17:57:45 10° SW 18:03:30 45° NW 18:09:16 10° NNE
H-2A R/B 3.4 17:59:50 10° N 18:04:00 42° WNW 18:08:04 10° SW
Okean O Rocket 2.9 18:00:37 10° S 18:04:53 46° W 18:09:09 10° NNW
Cosmos 1937 Rocket 4.1 18:01:32 10° SSE 18:06:19 35° E 18:10:47 12° NE
YAOGAN 1 3.1 18:02:46 10° SE 18:06:42 36° ENE 18:10:42 10° N
Cosmos 1818 4.2 18:01:26 10° SW 18:06:45 56° NW 18:12:09 10° NNE
Okean-O 3.0 18:05:10 10° SE 18:09:19 41° ENE 18:13:29 10° N
PSLV R/B 4.3 18:07:19 10° NNE 18:11:22 44° E 18:15:23 10° S
CZ-2C R/B 3.8 18:10:30 15° NE 18:13:32 23° E 18:17:54 10° SE
CZ-2C R/B 3.1 18:08:53 10° SSE 18:14:13 78° ENE 18:19:53 10° N
SJ 16-02 2.1 18:10:03 10° SW 18:14:21 54° WNW 18:18:41 10° N
Cosmos 2112 Rocket 3.9 18:15:15 10° NNW 18:20:27 63° ENE 18:25:36 10° SSE
Cosmos 1812 Rocket 3.6 18:17:32 10° N 18:21:52 55° E 18:26:07 10° SSE
Meteor 2-1 Rocket 4.3 18:16:21 10° NNW 18:21:54 76° W 18:27:22 10° S
NOSS 3-1 (C) 4.1 18:15:07 10° NNW 18:22:34 63° NE 18:31:11 10° SE
CSL-04 Debris 4.5 18:19:33 10° SE 18:24:34 41° ENE 18:29:35 10° N
Cosmos 44 3.4 18:20:54 10° SW 18:25:40 79° NW 18:29:51 15° NNE
CZ-4B R/B 2.5 18:22:38 10° N 18:25:50 43° WNW 18:28:55 10° SW
Cosmos 1703 3.2 18:22:53 10° S 18:26:45 89° W 18:30:39 10° N
SKYMED 2 4.1 18:23:00 10° N 18:27:18 61° WNW 18:31:34 10° SSW
SAR-Lupe-4 3.5 18:24:43 17° NNE 18:27:23 61° ESE 18:30:54 10° S
Cosmos 1627 Rocket 4.4 18:21:26 10° S 18:27:31 64° E 18:33:43 10° NNE
X-37B 0.8 18:25:35 10° W 18:28:45 59° N 18:29:27 45° NE
COSMOS 2406 3.6 18:25:35 10° NNW 18:31:03 41° ENE 18:34:24 21° ESE
Cosmos 1833 Rocket 3.2 18:27:28 10° N 18:32:39 36° ENE 18:34:40 28° E
OE (NEXTSAT) 4.4 18:32:19 10° WNW 18:35:43 58° N 18:36:14 50° NE
NOSS 2-1 (C) 3.2 18:33:12 10° SW 18:36:32 62° NW 18:37:54 31° NNE
Cosmos 990 Rocket 4.1 18:32:08 10° SSW 18:37:20 76° WNW 18:42:33 10° NNE
BREEZE-M DEB (TANK) 3.6 18:37:17 10° NW 18:38:32 22° NNW 18:38:32 22° NNW
Cosmos 1092 Rocket 4.0 18:33:20 10° S 18:39:32 85° W 18:45:43 10° N
Cosmos 1346 Rocket 3.8 18:37:49 10° SSE 18:40:13 30° SE 18:40:13 30° SE
USA 229 DEB 3.9 18:34:31 10° NNW 18:41:46 60° NE 18:47:27 19° SE
USA 229 3.9 18:34:38 10° NNW 18:41:52 60° NE 18:47:25 20° ESE
NOSS 2-1 (D) 3.5 18:39:11 10° SW 18:42:27 52° NW 18:43:40 32° N
USA 267 4.2 18:41:52 24° ESE 18:42:52 25° SE 18:48:04 10° S
Cosmos 2082 Rocket 3.2 18:38:46 10° N 18:43:03 26° NE 18:43:03 26° NE
SAR-Lupe-1 4.1 18:41:10 19° N 18:43:39 82° WNW 18:47:14 10° SSW
MOS 1 Rocket 4.0 18:42:37 10° N 18:46:45 48° WNW 18:50:53 10° SSW
Cosmos 1689 Rocket 2.3 18:46:58 58° NW 18:47:15 63° WNW 18:50:02 10° SSW
Cosmos 1844 Rocket 4.3 18:44:31 10° WSW 18:49:34 33° NW 18:54:39 10° N
Helios 1A Rocket 2.8 18:47:58 10° SSE 18:52:06 88° E 18:56:17 10° NNW
NOSS 3-1 (A) 4.0 18:49:53 10° NNW 18:57:23 65° NE 19:02:47 25° SE
Cosmos 405 3.4 19:00:27 10° NNW 19:03:24 56° NW 19:03:24 56° NW
Meteor 2-19 Rocket 4.4 19:00:44 10° S 19:06:53 89° W 19:13:06 10° N
Cosmos 2278 Rocket 2.0 19:03:13 10° SSW 19:08:51 74° ESE 19:10:25 49° NE
CSL-04 Rocket 3.6 19:05:16 10° SSE 19:10:41 87° WSW 19:16:13 10° NNW
Iridium 4 Rocket 4.2 19:09:13 10° N 19:14:35 54° W 19:19:29 10° SSW
Lacrosse 5 4.2 19:13:15 10° WNW 19:16:58 21° WSW 19:20:41 10° S
USA 234 4.1 19:16:51 31° NNE 19:17:42 32° NNE 19:23:20 10° NW
Cosmos 1758 Rocket 4.4 19:17:32 10° SSW 19:21:50 49° WNW 19:24:45 20° N
ISS -1.0 19:21:18 10° NW 19:22:23 15° NW 19:22:23 15° NW
Cosmos 1417 Rocket 4.4 19:23:16 10° N 19:29:31 89° W 19:35:48 10° S
H-2A R/B 3.5 19:26:45 10° SSW 19:31:19 36° W 19:36:02 10° NNW
CZ-4 R/B 4.0 19:29:30 10° SW 19:32:35 21° W 19:35:40 10° NW
Cosmos 1553 Rocket 4.2 19:26:56 10° NNW 19:33:20 73° W 19:39:37 10° S
Cosmos-2242 4.0 19:31:03 10° NNW 19:35:08 44° W 19:36:27 33° SW
Cosmos 372 Rocket 4.2 19:33:35 10° SSW 19:38:36 68° W 19:38:36 68° W
ARGOS 4.2 19:37:41 10° S 19:42:44 42° W 19:47:51 10° NNW
Cosmos 1655 Rocket 3.9 19:38:31 10° S 19:44:09 74° S 19:44:09 74° S
CZ-2C R/B 3.4 19:51:59 34° NNW 19:54:03 52° WNW 19:59:29 10° SW
S3M 4.1 19:51:22 10° NNW 19:57:16 67° W 19:57:16 67° W
CZ-3B R/B 3.9 20:02:54 10° WNW 20:06:55 50° SW 20:22:12 10° SSE
Cosmos 1833 Rocket 4.0 20:11:28 10° NW 20:16:28 35° WSW 20:16:28 35° WSW
USA 267 4.3 20:29:14 38° SW 20:29:14 38° SW 20:32:56 10° SW
Cosmos 2082 Rocket 4.0 20:22:23 10° NNW 20:24:57 26° NW 20:24:57 26° NW
